This is the latest recevied weather packets stored in our database for station/object KK4EQF. If no packets are shown the sender has not sent any weather packets the latest 1 day(s).
| Time | Temp. | Humidity | Pressure | Rain* | Wind** | Luminosity | Snow |
|---|---|---|---|---|---|---|---|
| 1778001416 | 26.67° C | 8% | 1015.9 hPa | 0 mm | 1.34 m/s, 196° | - | - |
| 1778001362 | 26.67° C | 8% | 1015.9 hPa | 0 mm | 1.34 m/s, 223° | - | - |
| 1778001289 | 26.67° C | 12% | 1016 hPa | 0 mm | 1.34 m/s, 190° | - | - |
| 1778001240 | 26.67° C | 12% | 1015.9 hPa | 0 mm | 1.34 m/s, 185° | - | - |
| 1778001220 | 26.67° C | 12% | 1016 hPa | 0 mm | 1.34 m/s, 204° | - | - |
| 1778001203 | 26.67° C | 13% | 1015.9 hPa | 0 mm | 1.34 m/s, 194° | - | - |
| 1778001184 | 26.67° C | 10% | 1015.9 hPa | 0 mm | 1.34 m/s, 213° | - | - |
| 1778000984 | 26.67° C | 11% | 1016 hPa | 0 mm | 1.34 m/s, 221° | - | - |
| 1778000932 | 26.67° C | 11% | 1016 hPa | 0 mm | 1.34 m/s, 207° | - | - |
| 1778000913 | 26.67° C | 11% | 1016 hPa | 0 mm | 1.34 m/s, 221° | - | - |
| 1778000893 | 26.67° C | 9% | 1016 hPa | 0 mm | 1.34 m/s, 237° | - | - |
| 1778000876 | 26.67° C | 9% | 1016.1 hPa | 0 mm | 1.34 m/s, 152° | - | - |
| 1778000676 | 26.67° C | 10% | 1016.1 hPa | 0 mm | 1.34 m/s, 187° | - | - |
| 1778000616 | 26.67° C | 13% | 1016.1 hPa | 0 mm | 1.34 m/s, 216° | - | - |
| 1778000555 | 26.67° C | 15% | 1016.1 hPa | 0 mm | 0.89 m/s, 213° | - | - |
| 1778000496 | 26.67° C | 17% | 1016.1 hPa | 0 mm | 0.89 m/s, 224° | - | - |
| 1778000441 | 26.67° C | 13% | 1016.1 hPa | 0 mm | 0.89 m/s, 200° | - | - |
| 1778000370 | 26.67° C | 14% | 1016.2 hPa | 0 mm | 0.89 m/s, 208° | - | - |
| 1778000310 | 26.67° C | 16% | 1016.2 hPa | 0 mm | 0.89 m/s, 229° | - | - |
| 1778000250 | 26.67° C | 20% | 1016.2 hPa | 0 mm | 0.89 m/s, 234° | - | - |
| 1778000191 | 26.67° C | 21% | 1016.2 hPa | 0 mm | 0.89 m/s, 219° | - | - |
| 1778000136 | 27.22° C | 21% | 1016.2 hPa | 0 mm | 1.34 m/s, 219° | - | - |
| 1778000068 | 27.22° C | 20% | 1016.2 hPa | 0 mm | 1.34 m/s, 245° | - | - |
| 1778000008 | 27.22° C | 23% | 1016.2 hPa | 0 mm | 1.34 m/s, 207° | - | - |
| 1777999949 | 27.22° C | 26% | 1016.2 hPa | 0 mm | 1.34 m/s, 186° | - | - |
* Rain latest hour (hover to see other rain measurements)
** Current wind speed in m/s (hover to see current wind gust speed)